owner,sensor,date,latitude,longitude,vertical_datum,sea_water_practical_salinity,qcFlag 
DISL,ioos:station:DISL:BSCA:1,2013-02-01T00:00:00Z,30.3288,-87.8293,1.835,8.47,1111122 
DISL,ioos:station:DISL:BSCA:1,2013-02-01T00:30:00Z,30.3288,-87.8293,1.826,8.9,1111122 
DISL,ioos:station:DISL:BSCA:1,2013-02-01T01:00:00Z,30.3288,-87.8293,1.777,9.24,1111122 
DISL,ioos:station:DISL:BSCA:1,2013-02-01T01:30:00Z,30.3288,-87.8293,1.764,8.55,1111122 
DISL,ioos:station:DISL:BSCA:1,2013-02-01T02:00:00Z,30.3288,-87.8293,1.763,8.69,1111122 
DISL,ioos:station:DISL:BSCA:1,2013-02-01T02:30:00Z,30.3288,-87.8293,1.773,8.59,1111122 
DISL,ioos:station:DISL:BSCA:1,2013-02-01T03:00:00Z,30.3288,-87.8293,1.791,8.55,1111122 
DISL,ioos:station:DISL:BSCA:1,2013-02-01T03:30:00Z,30.3288,-87.8293,1.777,7.96,1111122 
DISL,ioos:station:DISL:BSCA:1,2013-02-01T04:00:00Z,30.3288,-87.8293,1.796,7.64,1111122 
DISL,ioos:station:DISL:BSCA:1,2013-02-01T04:30:00Z,30.3288,-87.8293,1.784,6.47,1111122 
DISL,ioos:station:DISL:BSCA:1,2013-02-01T05:00:00Z,30.3288,-87.8293,1.798,6.03,1111122 
DISL,ioos:station:DISL:BSCA:1,2013-02-01T05:30:00Z,30.3288,-87.8293,1.773,4.67,1111122 
DISL,ioos:station:DISL:BSCA:1,2013-02-01T06:00:00Z,30.3288,-87.8293,1.813,4.55,1111122 
DISL,ioos:station:DISL:BSCA:1,2013-02-01T06:30:00Z,30.3288,-87.8293,1.713,4.51,1111122 
DISL,ioos:station:DISL:BSCA:1,2013-02-01T07:00:00Z,30.3288,-87.8293,1.87,4.11,1111122 
DISL,ioos:station:DISL:BSCA:1,2013-02-01T07:30:00Z,30.3288,-87.8293,1.834,4.28,1111122 
DISL,ioos:station:DISL:BSCA:1,2013-02-01T08:00:00Z,30.3288,-87.8293,1.818,4.1,1111122 
DISL,ioos:station:DISL:BSCA:1,2013-02-01T08:30:00Z,30.3288,-87.8293,1.784,4.46,1111122 
DISL,ioos:station:DISL:BSCA:1,2013-02-01T09:00:00Z,30.3288,-87.8293,1.834,4.11,1111122 
DISL,ioos:station:DISL:BSCA:1,2013-02-01T09:30:00Z,30.3288,-87.8293,1.804,4.13,1111122 
DISL,ioos:station:DISL:BSCA:1,2013-02-01T10:00:00Z,30.3288,-87.8293,1.773,4.05,1111122 
DISL,ioos:station:DISL:BSCA:1,2013-02-01T10:30:00Z,30.3288,-87.8293,1.731,3.88,1111122 
DISL,ioos:station:DISL:BSCA:1,2013-02-01T11:00:00Z,30.3288,-87.8293,1.687,3.9,1111122 
DISL,ioos:station:DISL:BSCA:1,2013-02-01T11:30:00Z,30.3288,-87.8293,1.658,3.9,1111122 
DISL,ioos:station:DISL:BSCA:1,2013-02-01T12:00:00Z,30.3288,-87.8293,1.652,3.9,1111122 
DISL,ioos:station:DISL:BSCA:1,2013-02-01T12:30:00Z,30.3288,-87.8293,1.648,3.89,1111122 
DISL,ioos:station:DISL:BSCA:1,2013-02-01T13:00:00Z,30.3288,-87.8293,1.648,3.87,1111122 
DISL,ioos:station:DISL:BSCA:1,2013-02-01T13:30:00Z,30.3288,-87.8293,1.661,3.74,1111122 
DISL,ioos:station:DISL:BSCA:1,2013-02-01T14:00:00Z,30.3288,-87.8293,1.668,3.69,1111122 
DISL,ioos:station:DISL:BSCA:1,2013-02-01T14:30:00Z,30.3288,-87.8293,1.666,4.68,1111122 
DISL,ioos:station:DISL:BSCA:1,2013-02-01T15:00:00Z,30.3288,-87.8293,1.655,5.46,1111122 
DISL,ioos:station:DISL:BSCA:1,2013-02-01T15:30:00Z,30.3288,-87.8293,1.652,4.36,1111122 
DISL,ioos:station:DISL:BSCA:1,2013-02-01T16:00:00Z,30.3288,-87.8293,1.633,4.44,1111122 
DISL,ioos:station:DISL:BSCA:1,2013-02-01T16:30:00Z,30.3288,-87.8293,1.619,4.72,1111122 
DISL,ioos:station:DISL:BSCA:1,2013-02-01T17:00:00Z,30.3288,-87.8293,1.628,4.28,1111122 
DISL,ioos:station:DISL:BSCA:1,2013-02-01T17:30:00Z,30.3288,-87.8293,1.633,4.51,1111122 
DISL,ioos:station:DISL:BSCA:1,2013-02-01T18:00:00Z,30.3288,-87.8293,1.654,4.77,1111122 
DISL,ioos:station:DISL:BSCA:1,2013-02-01T18:30:00Z,30.3288,-87.8293,1.68,5.18,1111122 
DISL,ioos:station:DISL:BSCA:1,2013-02-01T19:00:00Z,30.3288,-87.8293,1.699,5.4,1111122 
DISL,ioos:station:DISL:BSCA:1,2013-02-01T19:30:00Z,30.3288,-87.8293,1.732,5.44,1111122 
DISL,ioos:station:DISL:BSCA:1,2013-02-01T20:00:00Z,30.3288,-87.8293,1.734,6.51,1111122 
DISL,ioos:station:DISL:BSCA:1,2013-02-01T20:30:00Z,30.3288,-87.8293,1.755,7.73,1111122 
DISL,ioos:station:DISL:BSCA:1,2013-02-01T21:00:00Z,30.3288,-87.8293,1.73,8.05,1111122 
DISL,ioos:station:DISL:BSCA:1,2013-02-01T21:30:00Z,30.3288,-87.8293,1.76,8.21,1111122 
DISL,ioos:station:DISL:BSCA:1,2013-02-01T22:00:00Z,30.3288,-87.8293,1.774,8.43,1111122 
DISL,ioos:station:DISL:BSCA:1,2013-02-01T22:30:00Z,30.3288,-87.8293,1.762,8.41,1111122 
DISL,ioos:station:DISL:BSCA:1,2013-02-01T23:00:00Z,30.3288,-87.8293,1.754,8.54,1111122 
DISL,ioos:station:DISL:BSCA:1,2013-02-01T23:30:00Z,30.3288,-87.8293,1.748,8.46,1111122 
DISL,ioos:station:DISL:BSCA:1,2013-02-02T00:00:00Z,30.3288,-87.8293,1.743,8.6,1111122 
DISL,ioos:station:DISL:BSCA:1,2013-02-02T00:30:00Z,30.3288,-87.8293,1.748,8.87,1111122 
DISL,ioos:station:DISL:BSCA:1,2013-02-02T01:00:00Z,30.3288,-87.8293,1.736,8.58,1111122 
DISL,ioos:station:DISL:BSCA:1,2013-02-02T01:30:00Z,30.3288,-87.8293,1.719,8.16,1111122 
DISL,ioos:station:DISL:BSCA:1,2013-02-02T02:00:00Z,30.3288,-87.8293,1.7,8.36,1111122 
DISL,ioos:station:DISL:BSCA:1,2013-02-02T02:30:00Z,30.3288,-87.8293,1.674,8.53,1111122 
DISL,ioos:station:DISL:BSCA:1,2013-02-02T03:00:00Z,30.3288,-87.8293,1.652,9.0,1111122 
DISL,ioos:station:DISL:BSCA:1,2013-02-02T03:30:00Z,30.3288,-87.8293,1.63,9.28,1111122 
DISL,ioos:station:DISL:BSCA:1,2013-02-02T04:00:00Z,30.3288,-87.8293,1.64,9.59,1111122 
DISL,ioos:station:DISL:BSCA:1,2013-02-02T04:30:00Z,30.3288,-87.8293,1.64,9.62,1111122 
DISL,ioos:station:DISL:BSCA:1,2013-02-02T05:00:00Z,30.3288,-87.8293,1.631,9.64,1111122 
DISL,ioos:station:DISL:BSCA:1,2013-02-02T05:30:00Z,30.3288,-87.8293,1.625,9.71,1111122 
DISL,ioos:station:DISL:BSCA:1,2013-02-02T06:00:00Z,30.3288,-87.8293,1.61,8.76,1111122 
DISL,ioos:station:DISL:BSCA:1,2013-02-02T06:30:00Z,30.3288,-87.8293,1.607,6.82,1111122 
DISL,ioos:station:DISL:BSCA:1,2013-02-02T07:00:00Z,30.3288,-87.8293,1.6,6.16,1111122 
DISL,ioos:station:DISL:BSCA:1,2013-02-02T07:30:00Z,30.3288,-87.8293,1.591,6.02,1111122 
DISL,ioos:station:DISL:BSCA:1,2013-02-02T08:00:00Z,30.3288,-87.8293,1.584,6.08,1111122 
DISL,ioos:station:DISL:BSCA:1,2013-02-02T08:30:00Z,30.3288,-87.8293,1.592,5.93,1111122 
DISL,ioos:station:DISL:BSCA:1,2013-02-02T09:00:00Z,30.3288,-87.8293,1.596,5.86,1111122 
DISL,ioos:station:DISL:BSCA:1,2013-02-02T09:30:00Z,30.3288,-87.8293,1.601,5.65,1111122 
DISL,ioos:station:DISL:BSCA:1,2013-02-02T10:00:00Z,30.3288,-87.8293,1.615,5.46,1111122 
DISL,ioos:station:DISL:BSCA:1,2013-02-02T10:30:00Z,30.3288,-87.8293,1.625,5.11,1111122 
DISL,ioos:station:DISL:BSCA:1,2013-02-02T11:00:00Z,30.3288,-87.8293,1.621,4.86,1111122 
DISL,ioos:station:DISL:BSCA:1,2013-02-02T11:30:00Z,30.3288,-87.8293,1.624,4.79,1111122 
DISL,ioos:station:DISL:BSCA:1,2013-02-02T12:00:00Z,30.3288,-87.8293,1.613,5.12,1111122 
DISL,ioos:station:DISL:BSCA:1,2013-02-02T12:30:00Z,30.3288,-87.8293,1.625,5.1,1111122 
DISL,ioos:station:DISL:BSCA:1,2013-02-02T13:00:00Z,30.3288,-87.8293,1.632,5.05,1111122 
DISL,ioos:station:DISL:BSCA:1,2013-02-02T13:30:00Z,30.3288,-87.8293,1.647,5.11,1111122 
DISL,ioos:station:DISL:BSCA:1,2013-02-02T14:00:00Z,30.3288,-87.8293,1.659,5.04,1111122 
DISL,ioos:station:DISL:BSCA:1,2013-02-02T14:30:00Z,30.3288,-87.8293,1.671,4.94,1111122 
DISL,ioos:station:DISL:BSCA:1,2013-02-02T15:00:00Z,30.3288,-87.8293,1.683,4.79,1111122 
DISL,ioos:station:DISL:BSCA:1,2013-02-02T15:30:00Z,30.3288,-87.8293,1.714,4.7,1111122 
DISL,ioos:station:DISL:BSCA:1,2013-02-02T16:00:00Z,30.3288,-87.8293,1.724,4.45,1111122 
DISL,ioos:station:DISL:BSCA:1,2013-02-02T16:30:00Z,30.3288,-87.8293,1.759,4.89,1111122 
DISL,ioos:station:DISL:BSCA:1,2013-02-02T17:00:00Z,30.3288,-87.8293,1.782,6.37,1111122 
DISL,ioos:station:DISL:BSCA:1,2013-02-02T17:30:00Z,30.3288,-87.8293,1.824,7.07,1111122 
DISL,ioos:station:DISL:BSCA:1,2013-02-02T18:00:00Z,30.3288,-87.8293,1.855,6.88,1111122 
DISL,ioos:station:DISL:BSCA:1,2013-02-02T18:30:00Z,30.3288,-87.8293,1.882,5.71,1111122 
DISL,ioos:station:DISL:BSCA:1,2013-02-02T19:00:00Z,30.3288,-87.8293,1.918,6.11,1111122 
DISL,ioos:station:DISL:BSCA:1,2013-02-02T19:30:00Z,30.3288,-87.8293,1.926,6.74,1111122 
DISL,ioos:station:DISL:BSCA:1,2013-02-02T20:00:00Z,30.3288,-87.8293,1.976,5.71,1111122 
DISL,ioos:station:DISL:BSCA:1,2013-02-02T20:30:00Z,30.3288,-87.8293,1.992,5.1,1111122 
DISL,ioos:station:DISL:BSCA:1,2013-02-02T21:00:00Z,30.3288,-87.8293,2.02,4.67,1111122 
DISL,ioos:station:DISL:BSCA:1,2013-02-02T21:30:00Z,30.3288,-87.8293,2.053,4.47,1111122 
DISL,ioos:station:DISL:BSCA:1,2013-02-02T22:00:00Z,30.3288,-87.8293,2.062,4.48,1111122 
DISL,ioos:station:DISL:BSCA:1,2013-02-02T22:30:00Z,30.3288,-87.8293,2.069,4.84,1111122 
DISL,ioos:station:DISL:BSCA:1,2013-02-02T23:00:00Z,30.3288,-87.8293,2.064,4.83,1111122 
DISL,ioos:station:DISL:BSCA:1,2013-02-02T23:30:00Z,30.3288,-87.8293,2.048,4.64,1111122 
DISL,ioos:station:DISL:BSCA:1,2013-02-03T00:00:00Z,30.3288,-87.8293,2.03,4.51,1111122 
DISL,ioos:station:DISL:BSCA:1,2013-02-03T00:30:00Z,30.3288,-87.8293,2.015,4.23,1111122 
DISL,ioos:station:DISL:BSCA:1,2013-02-03T01:00:00Z,30.3288,-87.8293,1.979,3.98,1111122 
DISL,ioos:station:DISL:BSCA:1,2013-02-03T01:30:00Z,30.3288,-87.8293,1.952,3.72,1111122 
DISL,ioos:station:DISL:BSCA:1,2013-02-03T02:00:00Z,30.3288,-87.8293,1.914,3.61,1111122 
DISL,ioos:station:DISL:BSCA:1,2013-02-03T02:30:00Z,30.3288,-87.8293,1.882,3.5,1111122 
DISL,ioos:station:DISL:BSCA:1,2013-02-03T03:00:00Z,30.3288,-87.8293,1.85,6.67,1111122 
DISL,ioos:station:DISL:BSCA:1,2013-02-03T03:30:00Z,30.3288,-87.8293,1.815,7.35,1111122 
DISL,ioos:station:DISL:BSCA:1,2013-02-03T04:00:00Z,30.3288,-87.8293,1.789,7.5,1111122 
DISL,ioos:station:DISL:BSCA:1,2013-02-03T04:30:00Z,30.3288,-87.8293,1.76,7.7,1111122 
DISL,ioos:station:DISL:BSCA:1,2013-02-03T05:00:00Z,30.3288,-87.8293,1.726,7.92,1111122 
DISL,ioos:station:DISL:BSCA:1,2013-02-03T05:30:00Z,30.3288,-87.8293,1.711,8.06,1111122 
DISL,ioos:station:DISL:BSCA:1,2013-02-03T06:00:00Z,30.3288,-87.8293,1.686,8.15,1111122 
DISL,ioos:station:DISL:BSCA:1,2013-02-03T06:30:00Z,30.3288,-87.8293,1.686,8.16,1111122 
DISL,ioos:station:DISL:BSCA:1,2013-02-03T07:00:00Z,30.3288,-87.8293,1.68,8.17,1111122 
DISL,ioos:station:DISL:BSCA:1,2013-02-03T07:30:00Z,30.3288,-87.8293,1.668,8.21,1111122 
DISL,ioos:station:DISL:BSCA:1,2013-02-03T08:00:00Z,30.3288,-87.8293,1.665,8.07,1111122 
DISL,ioos:station:DISL:BSCA:1,2013-02-03T08:30:00Z,30.3288,-87.8293,1.66,8.2,1111122 
DISL,ioos:station:DISL:BSCA:1,2013-02-03T09:00:00Z,30.3288,-87.8293,1.672,8.2,1111122 
DISL,ioos:station:DISL:BSCA:1,2013-02-03T09:30:00Z,30.3288,-87.8293,1.647,8.04,1111122 
DISL,ioos:station:DISL:BSCA:1,2013-02-03T10:00:00Z,30.3288,-87.8293,1.626,7.97,1111122 
DISL,ioos:station:DISL:BSCA:1,2013-02-03T10:30:00Z,30.3288,-87.8293,1.615,8.03,1111122 
DISL,ioos:station:DISL:BSCA:1,2013-02-03T11:00:00Z,30.3288,-87.8293,1.605,8.15,1111122 
DISL,ioos:station:DISL:BSCA:1,2013-02-03T11:30:00Z,30.3288,-87.8293,1.601,8.67,1111122 
DISL,ioos:station:DISL:BSCA:1,2013-02-03T12:00:00Z,30.3288,-87.8293,1.59,8.05,1111122 
DISL,ioos:station:DISL:BSCA:1,2013-02-03T12:30:00Z,30.3288,-87.8293,1.585,8.73,1111122 
DISL,ioos:station:DISL:BSCA:1,2013-02-03T13:00:00Z,30.3288,-87.8293,1.592,9.32,1111122 
DISL,ioos:station:DISL:BSCA:1,2013-02-03T13:30:00Z,30.3288,-87.8293,1.609,9.55,1111122 
DISL,ioos:station:DISL:BSCA:1,2013-02-03T14:00:00Z,30.3288,-87.8293,1.637,9.67,1111122 
DISL,ioos:station:DISL:BSCA:1,2013-02-03T14:30:00Z,30.3288,-87.8293,1.669,9.76,1111122 
DISL,ioos:station:DISL:BSCA:1,2013-02-03T15:00:00Z,30.3288,-87.8293,1.69,9.85,1111122 
DISL,ioos:station:DISL:BSCA:1,2013-02-03T15:30:00Z,30.3288,-87.8293,1.724,9.92,1111122 
DISL,ioos:station:DISL:BSCA:1,2013-02-03T16:00:00Z,30.3288,-87.8293,1.745,10.02,1111122 
DISL,ioos:station:DISL:BSCA:1,2013-02-03T16:30:00Z,30.3288,-87.8293,1.77,10.11,1111122 
DISL,ioos:station:DISL:BSCA:1,2013-02-03T17:00:00Z,30.3288,-87.8293,1.797,10.2,1111122 
DISL,ioos:station:DISL:BSCA:1,2013-02-03T17:30:00Z,30.3288,-87.8293,1.826,10.12,1111122 
DISL,ioos:station:DISL:BSCA:1,2013-02-03T18:00:00Z,30.3288,-87.8293,1.88,10.1,1111122 
DISL,ioos:station:DISL:BSCA:1,2013-02-03T18:30:00Z,30.3288,-87.8293,1.907,10.23,1111122 
DISL,ioos:station:DISL:BSCA:1,2013-02-03T19:00:00Z,30.3288,-87.8293,1.941,10.0,1111122 
DISL,ioos:station:DISL:BSCA:1,2013-02-03T19:30:00Z,30.3288,-87.8293,1.97,9.92,1111122 
DISL,ioos:station:DISL:BSCA:1,2013-02-03T20:00:00Z,30.3288,-87.8293,1.993,9.95,1111122 
DISL,ioos:station:DISL:BSCA:1,2013-02-03T20:30:00Z,30.3288,-87.8293,2.03,9.88,1111122 
DISL,ioos:station:DISL:BSCA:1,2013-02-03T21:00:00Z,30.3288,-87.8293,2.05,9.43,1111122 
DISL,ioos:station:DISL:BSCA:1,2013-02-03T21:30:00Z,30.3288,-87.8293,2.062,9.96,1111122 
DISL,ioos:station:DISL:BSCA:1,2013-02-03T22:00:00Z,30.3288,-87.8293,2.065,9.89,1111122 
DISL,ioos:station:DISL:BSCA:1,2013-02-03T22:30:00Z,30.3288,-87.8293,2.066,9.98,1111122 
DISL,ioos:station:DISL:BSCA:1,2013-02-03T23:00:00Z,30.3288,-87.8293,2.066,9.95,1111122 
DISL,ioos:station:DISL:BSCA:1,2013-02-03T23:30:00Z,30.3288,-87.8293,2.056,9.89,1111122 
DISL,ioos:station:DISL:BSCA:1,2013-02-04T00:00:00Z,30.3288,-87.8293,2.053,9.67,1111122 
DISL,ioos:station:DISL:BSCA:1,2013-02-04T00:30:00Z,30.3288,-87.8293,2.041,9.51,1111122 
DISL,ioos:station:DISL:BSCA:1,2013-02-04T01:00:00Z,30.3288,-87.8293,2.018,9.53,1111122 
DISL,ioos:station:DISL:BSCA:1,2013-02-04T01:30:00Z,30.3288,-87.8293,1.999,9.19,1111122 
DISL,ioos:station:DISL:BSCA:1,2013-02-04T02:00:00Z,30.3288,-87.8293,1.966,8.66,1111122 
DISL,ioos:station:DISL:BSCA:1,2013-02-04T02:30:00Z,30.3288,-87.8293,1.932,8.25,1111122 
DISL,ioos:station:DISL:BSCA:1,2013-02-04T03:00:00Z,30.3288,-87.8293,1.896,8.01,1111122 
DISL,ioos:station:DISL:BSCA:1,2013-02-04T03:30:00Z,30.3288,-87.8293,1.863,7.73,1111122 
DISL,ioos:station:DISL:BSCA:1,2013-02-04T04:00:00Z,30.3288,-87.8293,1.824,7.39,1111122 
DISL,ioos:station:DISL:BSCA:1,2013-02-04T04:30:00Z,30.3288,-87.8293,1.806,7.34,1111122 
DISL,ioos:station:DISL:BSCA:1,2013-02-04T05:00:00Z,30.3288,-87.8293,1.772,7.92,1111122 
DISL,ioos:station:DISL:BSCA:1,2013-02-04T05:30:00Z,30.3288,-87.8293,1.754,8.13,1111122 
DISL,ioos:station:DISL:BSCA:1,2013-02-04T06:00:00Z,30.3288,-87.8293,1.72,7.43,1111122 
DISL,ioos:station:DISL:BSCA:1,2013-02-04T06:30:00Z,30.3288,-87.8293,1.689,7.04,1111122 
DISL,ioos:station:DISL:BSCA:1,2013-02-04T07:00:00Z,30.3288,-87.8293,1.685,7.99,1111122 
DISL,ioos:station:DISL:BSCA:1,2013-02-04T07:30:00Z,30.3288,-87.8293,1.651,8.2,1111122 
DISL,ioos:station:DISL:BSCA:1,2013-02-04T08:00:00Z,30.3288,-87.8293,1.628,8.79,1111122 
DISL,ioos:station:DISL:BSCA:1,2013-02-04T08:30:00Z,30.3288,-87.8293,1.608,9.01,1111122 
DISL,ioos:station:DISL:BSCA:1,2013-02-04T09:00:00Z,30.3288,-87.8293,1.578,9.11,1111122 
DISL,ioos:station:DISL:BSCA:1,2013-02-04T09:30:00Z,30.3288,-87.8293,1.557,9.22,1111122 
DISL,ioos:station:DISL:BSCA:1,2013-02-04T10:00:00Z,30.3288,-87.8293,1.535,9.71,1111122 
DISL,ioos:station:DISL:BSCA:1,2013-02-04T10:30:00Z,30.3288,-87.8293,1.526,9.74,1111122 
DISL,ioos:station:DISL:BSCA:1,2013-02-04T11:00:00Z,30.3288,-87.8293,1.523,9.55,1111122 
DISL,ioos:station:DISL:BSCA:1,2013-02-04T11:30:00Z,30.3288,-87.8293,1.539,9.21,1111122 
DISL,ioos:station:DISL:BSCA:1,2013-02-04T12:00:00Z,30.3288,-87.8293,1.549,9.78,1111122 
DISL,ioos:station:DISL:BSCA:1,2013-02-04T12:30:00Z,30.3288,-87.8293,1.572,9.51,1111122 
DISL,ioos:station:DISL:BSCA:1,2013-02-04T13:00:00Z,30.3288,-87.8293,1.597,9.54,1111122 
DISL,ioos:station:DISL:BSCA:1,2013-02-04T13:30:00Z,30.3288,-87.8293,1.628,9.19,1111122 
DISL,ioos:station:DISL:BSCA:1,2013-02-04T14:00:00Z,30.3288,-87.8293,1.657,9.38,1111122 
DISL,ioos:station:DISL:BSCA:1,2013-02-04T14:30:00Z,30.3288,-87.8293,1.681,9.92,1111122 
DISL,ioos:station:DISL:BSCA:1,2013-02-04T15:00:00Z,30.3288,-87.8293,1.701,9.02,1111122 
DISL,ioos:station:DISL:BSCA:1,2013-02-04T15:30:00Z,30.3288,-87.8293,1.733,8.59,1111122 
DISL,ioos:station:DISL:BSCA:1,2013-02-04T16:00:00Z,30.3288,-87.8293,1.769,8.47,1111122 
DISL,ioos:station:DISL:BSCA:1,2013-02-04T16:30:00Z,30.3288,-87.8293,1.813,8.48,1111122 
DISL,ioos:station:DISL:BSCA:1,2013-02-04T17:00:00Z,30.3288,-87.8293,1.857,8.86,1111122 
DISL,ioos:station:DISL:BSCA:1,2013-02-04T17:30:00Z,30.3288,-87.8293,1.895,9.3,1111122 
DISL,ioos:station:DISL:BSCA:1,2013-02-04T18:00:00Z,30.3288,-87.8293,1.926,9.18,1111122 
DISL,ioos:station:DISL:BSCA:1,2013-02-04T18:30:00Z,30.3288,-87.8293,1.946,9.24,1111122 
DISL,ioos:station:DISL:BSCA:1,2013-02-04T19:00:00Z,30.3288,-87.8293,1.973,8.87,1111122 
DISL,ioos:station:DISL:BSCA:1,2013-02-04T19:30:00Z,30.3288,-87.8293,2.006,8.21,1111122 
DISL,ioos:station:DISL:BSCA:1,2013-02-04T20:00:00Z,30.3288,-87.8293,2.033,7.61,1111122 
DISL,ioos:station:DISL:BSCA:1,2013-02-04T20:30:00Z,30.3288,-87.8293,2.06,7.11,1111122 
DISL,ioos:station:DISL:BSCA:1,2013-02-04T21:00:00Z,30.3288,-87.8293,2.072,7.7,1111122 
DISL,ioos:station:DISL:BSCA:1,2013-02-04T21:30:00Z,30.3288,-87.8293,2.098,7.79,1111122 
DISL,ioos:station:DISL:BSCA:1,2013-02-04T22:00:00Z,30.3288,-87.8293,2.109,8.08,1111122 
DISL,ioos:station:DISL:BSCA:1,2013-02-04T22:30:00Z,30.3288,-87.8293,2.118,8.6,1111122 
DISL,ioos:station:DISL:BSCA:1,2013-02-04T23:00:00Z,30.3288,-87.8293,2.119,9.13,1111122 
DISL,ioos:station:DISL:BSCA:1,2013-02-04T23:30:00Z,30.3288,-87.8293,2.12,8.89,1111122 
DISL,ioos:station:DISL:BSCA:1,2013-02-05T00:00:00Z,30.3288,-87.8293,2.112,8.4,1111122 
DISL,ioos:station:DISL:BSCA:1,2013-02-05T00:30:00Z,30.3288,-87.8293,2.1,8.94,1111122 
DISL,ioos:station:DISL:BSCA:1,2013-02-05T01:00:00Z,30.3288,-87.8293,2.096,8.92,1111122 
DISL,ioos:station:DISL:BSCA:1,2013-02-05T01:30:00Z,30.3288,-87.8293,2.084,8.2,1111122 
DISL,ioos:station:DISL:BSCA:1,2013-02-05T02:00:00Z,30.3288,-87.8293,2.058,8.45,1111122 
DISL,ioos:station:DISL:BSCA:1,2013-02-05T02:30:00Z,30.3288,-87.8293,2.035,8.26,1111122 
DISL,ioos:station:DISL:BSCA:1,2013-02-05T03:00:00Z,30.3288,-87.8293,2.001,8.14,1111122 
DISL,ioos:station:DISL:BSCA:1,2013-02-05T03:30:00Z,30.3288,-87.8293,1.98,7.92,1111122 
DISL,ioos:station:DISL:BSCA:1,2013-02-05T04:00:00Z,30.3288,-87.8293,1.952,8.24,1111122 
DISL,ioos:station:DISL:BSCA:1,2013-02-05T04:30:00Z,30.3288,-87.8293,1.929,8.22,1111122 
DISL,ioos:station:DISL:BSCA:1,2013-02-05T05:00:00Z,30.3288,-87.8293,1.893,8.06,1111122 
DISL,ioos:station:DISL:BSCA:1,2013-02-05T05:30:00Z,30.3288,-87.8293,1.871,7.84,1111122 
DISL,ioos:station:DISL:BSCA:1,2013-02-05T06:00:00Z,30.3288,-87.8293,1.841,7.43,1111122 
DISL,ioos:station:DISL:BSCA:1,2013-02-05T06:30:00Z,30.3288,-87.8293,1.815,7.36,1111122 
DISL,ioos:station:DISL:BSCA:1,2013-02-05T07:00:00Z,30.3288,-87.8293,1.784,7.43,1111122 
DISL,ioos:station:DISL:BSCA:1,2013-02-05T07:30:00Z,30.3288,-87.8293,1.759,7.18,1111122 
DISL,ioos:station:DISL:BSCA:1,2013-02-05T08:00:00Z,30.3288,-87.8293,1.731,7.56,1111122 
DISL,ioos:station:DISL:BSCA:1,2013-02-05T08:30:00Z,30.3288,-87.8293,1.71,7.66,1111122 
DISL,ioos:station:DISL:BSCA:1,2013-02-05T09:00:00Z,30.3288,-87.8293,1.684,7.43,1111122 
DISL,ioos:station:DISL:BSCA:1,2013-02-05T09:30:00Z,30.3288,-87.8293,1.69,7.13,1111122 
DISL,ioos:station:DISL:BSCA:1,2013-02-05T10:00:00Z,30.3288,-87.8293,1.65,7.63,1111122 
DISL,ioos:station:DISL:BSCA:1,2013-02-05T10:30:00Z,30.3288,-87.8293,1.619,7.26,1111122 
DISL,ioos:station:DISL:BSCA:1,2013-02-05T11:00:00Z,30.3288,-87.8293,1.602,7.87,1111122 
DISL,ioos:station:DISL:BSCA:1,2013-02-05T11:30:00Z,30.3288,-87.8293,1.61,7.9,1111122 
DISL,ioos:station:DISL:BSCA:1,2013-02-05T12:00:00Z,30.3288,-87.8293,1.587,7.94,1111122 
DISL,ioos:station:DISL:BSCA:1,2013-02-05T12:30:00Z,30.3288,-87.8293,1.621,6.18,1111122 
DISL,ioos:station:DISL:BSCA:1,2013-02-05T13:00:00Z,30.3288,-87.8293,1.614,8.09,1111122 
DISL,ioos:station:DISL:BSCA:1,2013-02-05T13:30:00Z,30.3288,-87.8293,1.666,8.02,1111122 
DISL,ioos:station:DISL:BSCA:1,2013-02-05T14:00:00Z,30.3288,-87.8293,1.685,7.19,1111122 
DISL,ioos:station:DISL:BSCA:1,2013-02-05T14:30:00Z,30.3288,-87.8293,1.743,8.38,1111122 
DISL,ioos:station:DISL:BSCA:1,2013-02-05T15:00:00Z,30.3288,-87.8293,1.772,8.61,1111122 
DISL,ioos:station:DISL:BSCA:1,2013-02-05T15:30:00Z,30.3288,-87.8293,1.812,8.19,1111122 
DISL,ioos:station:DISL:BSCA:1,2013-02-05T16:00:00Z,30.3288,-87.8293,1.842,8.19,1111122 
DISL,ioos:station:DISL:BSCA:1,2013-02-05T16:30:00Z,30.3288,-87.8293,1.874,8.31,1111122 
DISL,ioos:station:DISL:BSCA:1,2013-02-05T17:00:00Z,30.3288,-87.8293,1.893,8.55,1111122 
DISL,ioos:station:DISL:BSCA:1,2013-02-05T17:30:00Z,30.3288,-87.8293,1.922,8.59,1111122 
DISL,ioos:station:DISL:BSCA:1,2013-02-05T18:00:00Z,30.3288,-87.8293,1.942,8.73,1111122 
DISL,ioos:station:DISL:BSCA:1,2013-02-05T18:30:00Z,30.3288,-87.8293,1.987,8.98,1111122 
DISL,ioos:station:DISL:BSCA:1,2013-02-05T19:00:00Z,30.3288,-87.8293,2.023,8.91,1111122 
DISL,ioos:station:DISL:BSCA:1,2013-02-05T19:30:00Z,30.3288,-87.8293,2.068,9.08,1111122 
DISL,ioos:station:DISL:BSCA:1,2013-02-05T20:00:00Z,30.3288,-87.8293,2.113,9.24,1111122 
DISL,ioos:station:DISL:BSCA:1,2013-02-05T20:30:00Z,30.3288,-87.8293,2.151,9.39,1111122 
DISL,ioos:station:DISL:BSCA:1,2013-02-05T21:00:00Z,30.3288,-87.8293,2.185,9.49,1111122 
DISL,ioos:station:DISL:BSCA:1,2013-02-05T21:30:00Z,30.3288,-87.8293,2.207,9.68,1111122 
DISL,ioos:station:DISL:BSCA:1,2013-02-05T22:00:00Z,30.3288,-87.8293,2.235,9.52,1111122 
DISL,ioos:station:DISL:BSCA:1,2013-02-05T22:30:00Z,30.3288,-87.8293,2.243,9.49,1111122 
DISL,ioos:station:DISL:BSCA:1,2013-02-05T23:00:00Z,30.3288,-87.8293,2.26,9.55,1111122 
DISL,ioos:station:DISL:BSCA:1,2013-02-05T23:30:00Z,30.3288,-87.8293,2.264,9.45,1111122 
DISL,ioos:station:DISL:BSCA:1,2013-02-06T00:00:00Z,30.3288,-87.8293,2.274,9.47,1111122 
DISL,ioos:station:DISL:BSCA:1,2013-02-06T00:30:00Z,30.3288,-87.8293,2.267,9.32,1111122 
DISL,ioos:station:DISL:BSCA:1,2013-02-06T01:00:00Z,30.3288,-87.8293,2.267,9.15,1111122 
DISL,ioos:station:DISL:BSCA:1,2013-02-06T01:30:00Z,30.3288,-87.8293,2.253,9.18,1111122 
DISL,ioos:station:DISL:BSCA:1,2013-02-06T02:00:00Z,30.3288,-87.8293,2.24,9.19,1111122 
DISL,ioos:station:DISL:BSCA:1,2013-02-06T02:30:00Z,30.3288,-87.8293,2.222,9.0,1111122 
DISL,ioos:station:DISL:BSCA:1,2013-02-06T03:00:00Z,30.3288,-87.8293,2.205,9.09,1111122 
DISL,ioos:station:DISL:BSCA:1,2013-02-06T03:30:00Z,30.3288,-87.8293,2.171,9.11,1111122 
DISL,ioos:station:DISL:BSCA:1,2013-02-06T04:00:00Z,30.3288,-87.8293,2.136,9.19,1111122 
DISL,ioos:station:DISL:BSCA:1,2013-02-06T04:30:00Z,30.3288,-87.8293,2.093,9.16,1111122 
DISL,ioos:station:DISL:BSCA:1,2013-02-06T05:00:00Z,30.3288,-87.8293,2.053,9.17,1111122 
DISL,ioos:station:DISL:BSCA:1,2013-02-06T05:30:00Z,30.3288,-87.8293,2.018,9.2,1111122 
DISL,ioos:station:DISL:BSCA:1,2013-02-06T06:00:00Z,30.3288,-87.8293,1.969,9.15,1111122 
DISL,ioos:station:DISL:BSCA:1,2013-02-06T06:30:00Z,30.3288,-87.8293,1.943,9.05,1111122 
DISL,ioos:station:DISL:BSCA:1,2013-02-06T07:00:00Z,30.3288,-87.8293,1.904,9.63,1111122 
DISL,ioos:station:DISL:BSCA:1,2013-02-06T07:30:00Z,30.3288,-87.8293,1.862,10.28,1111122 
DISL,ioos:station:DISL:BSCA:1,2013-02-06T08:00:00Z,30.3288,-87.8293,1.828,9.99,1111122 
DISL,ioos:station:DISL:BSCA:1,2013-02-06T08:30:00Z,30.3288,-87.8293,1.8,10.96,1111122 
DISL,ioos:station:DISL:BSCA:1,2013-02-06T09:00:00Z,30.3288,-87.8293,1.769,10.94,1111122 
DISL,ioos:station:DISL:BSCA:1,2013-02-06T09:30:00Z,30.3288,-87.8293,1.744,11.12,1111122 
DISL,ioos:station:DISL:BSCA:1,2013-02-06T10:00:00Z,30.3288,-87.8293,1.723,11.13,1111122 
DISL,ioos:station:DISL:BSCA:1,2013-02-06T10:30:00Z,30.3288,-87.8293,1.705,11.0,1111122 
DISL,ioos:station:DISL:BSCA:1,2013-02-06T11:00:00Z,30.3288,-87.8293,1.689,10.94,1111122 
DISL,ioos:station:DISL:BSCA:1,2013-02-06T11:30:00Z,30.3288,-87.8293,1.672,10.95,1111122 
DISL,ioos:station:DISL:BSCA:1,2013-02-06T12:00:00Z,30.3288,-87.8293,1.668,11.1,1111122 
DISL,ioos:station:DISL:BSCA:1,2013-02-06T12:30:00Z,30.3288,-87.8293,1.665,11.41,1111122 
DISL,ioos:station:DISL:BSCA:1,2013-02-06T13:00:00Z,30.3288,-87.8293,1.676,11.6,1111122 
DISL,ioos:station:DISL:BSCA:1,2013-02-06T13:30:00Z,30.3288,-87.8293,1.697,11.96,1111122 
DISL,ioos:station:DISL:BSCA:1,2013-02-06T14:00:00Z,30.3288,-87.8293,1.714,12.1,1111122 
DISL,ioos:station:DISL:BSCA:1,2013-02-06T14:30:00Z,30.3288,-87.8293,1.74,12.3,1111122 
DISL,ioos:station:DISL:BSCA:1,2013-02-06T15:00:00Z,30.3288,-87.8293,1.767,12.47,1111122 
DISL,ioos:station:DISL:BSCA:1,2013-02-06T15:30:00Z,30.3288,-87.8293,1.792,12.54,1111122 